Tracking 33180 objects as of 11-Feb-2026
HD Live streaming from Space Station
objects crossing your sky now

STARLINK-32874

Track STARLINK-32874 now!
10-day predictions
STARLINK-32874 is classified as:


NORAD ID: 62954
Int'l Code: 2025-029G
Perigee: 481.3 km
Apogee: 483.3 km
Inclination: 53.2 °
Period: 94.1 minutes
Semi major axis: 6853 km
RCS: Unknown
Launch date: February 11, 2025
Source: United States (US)
Launch site: AIR FORCE WESTERN TEST RANGE (AFWTR)
Your satellite tracking list
Your tracking list is empty




NASA's NSSDC Master Catalog

Two Line Element Set (TLE):
1 62954U 25029G   26041.27056417  .00028315  00000-0  96398-3 0  9996
2 62954  53.1630 357.3938 0001470 192.1411 167.9555 15.30216851 57164
Source of the keplerian elements: AFSPC